TIMESTAMP,CO2_1_1_1,H2O_1_1_1,TAU_1_1_1,TAU_SSITC_TEST_1_1_1,H_1_1_1,H_SSITC_TEST_1_1_1,LE_1_1_1,LE_SSITC_TEST_1_1_1,FC_1_1_1,FC_SSITC_TEST_1_1_1,WD_0_0_1,WS_0_0_1,WS_MAX_0_0_1,U_SIGMA_0_0_1,V_SIGMA_0_0_1,W_SIGMA_0_0_1,USTAR_0_0_1,MO_LENGTH_0_0_1,ZL_0_0_1,FETCH_MAX_0_0_1,FETCH_70_0_0_1,FETCH_80_0_0_1,FETCH_90_0_0_1,PA_0_0_1,RH_0_0_1,TA_0_0_1,VPD_0_0_1,T_SONIC_0_0_1,T_SONIC_SIGMA_0_0_1
[yyyymmddHHMMSS],[mmolCO2 mol-1],[mmolH2O mol-1],[kg m-1 s-2],[#],[W m-2],[#],[W m-2],[#],[umolCO2 m-2 s-1],[#],[Decimal degrees],[m s-1],[m s-1],[m s-1],[m s-1],[m s-1],[m s-1],[m],[#],[m],[m],[m],[m],[kPa],[%],[deg C],[hPa],[deg C],[deg C]
20221116003000,422.20859274145499,5.1656889151711827,0.28685714453706701,0,-5.5869157699621530,0,0.43642481224849605,0,0.74795370272529349,0,17.950132101937157,2.3203129762472940,6.0686613498507356,0.97217163698068365,0.74812611765169756,0.52184651994030840,0.48623488214045724,1721.4414969709039,1.1037261523806022E-002,118.33073328171696,216.34632009070171,258.91128952741786,324.12621095704191,94.466451679470481,95.765517241379314,-2.4348275862068931,0.21583085995722401,-1.9963550872802784,4.7559759689449102E-002
20221116010000,422.59269010615355,5.1913944330751329,0.24584438546931559,0,-2.5663000271791319,0,-0.77494205316463693,1,0.41168995407936460,1,24.521912292598728,2.0407451997036024,5.1688052956758099,0.88632429810162305,0.60043770585493106,0.46668376778007786,0.45016934114407287,2973.9874946858499,6.3887289485751583E-003,121.65710415578215,222.42798694007033,266.18949146672531,333.23765612219410,94.463644999131944,96.026666666666671,-2.4049999999999727,0.20296836474336147,-1.9848890482584238,4.5207012582657961E-002
20221116013000,422.92850542445206,5.1915235029831175,0.27334367127145448,0,-1.2560214194091197,0,5.7853700047736130,1,1.8525953528247427,1,43.860317024398370,2.4232868442283690,7.2123517596772801,1.0800513669874483,0.73626083316706292,0.53025007924724576,0.47470692637359213,7124.0398880408138,2.6670260552436632E-003,114.60689880139795,209.53796300458566,250.76342497399992,313.92605139694331,94.441717490234382,96.230000000000004,-2.4363333333333230,0.19213480529685001,-2.0187760687933860,3.8425087502071367E-002
20221116020000,421.61250451108839,4.9556543319106927,0.30059943756981955,0,-6.4094443049210241,0,-2.4770318769217221,1,0.63782958874191076,0,60.522182801024712,3.8636955573185010,9.6737545482851086,1.2688852992712645,1.0513148643905093,0.67276047590355725,0.49776110437918381,1609.2524674319134,1.1806724168222461E-002,98.397324635446708,179.90169165070316,215.29637737272216,269.52551647311628,94.427140605034737,92.340000000000003,-2.5090000000000146,0.38828733329858722,-2.0952195290459485,7.3356700415142390E-002
20221116023000,421.26793818130352,4.8498291366298441,0.26685448094083924,0,-9.5178329290994856,0,3.5157203266804182,0,1.0143142320326197,0,55.057736899228246,2.6516221183102600,6.5398700292203973,1.1256315052301222,0.73386582955502766,0.51142196393415906,0.46877726123707303,905.21028049553070,2.0989598118128984E-002,116.78972322170303,213.52886222104550,255.53951204621993,319.90514566025331,94.431672477213539,91.876666666666665,-2.7313333333333389,0.40503228607243047,-2.3195820473565050,5.8569029918050790E-002
20221116030000,421.70924286300976,4.9099634369891536,7.6179668233648939E-002,0,-2.8211729243129886,0,1.8199913468640379,1,0.61088698373571215,0,45.482731538351516,2.2871088235193895,4.4045657107258007,0.63381951783286616,0.50099410752845253,0.32079193272413814,0.25038511350287690,465.40093994694763,4.0825014238617272E-002,102.69822867034219,187.76511592947975,224.70688788783374,281.30635894623492,94.443848832248264,94.043333333333337,-2.8773333333333539,0.29379452509735815,-2.4543534876505078,4.6317005639154155E-002
20221116033000,422.33512217924596,4.9636545422862879,0.12525261725589334,0,-4.6641460725587889,0,0.58741034218700472,0,0.79567506078040473,0,50.246301804410081,1.6920574451533690,4.3178709451544437,0.64942030730064815,0.53897370478174600,0.36568384146574562,0.32102947166327017,593.31879345491234,3.2023256653244465E-002,112.82522457004470,206.28049427382049,246.86506687239660,309.04576964973671,94.440980159505216,95.496666666666670,-2.9376666666666438,0.22111815131672585,-2.5290803866915894,3.6767240944167896E-002
20221116040000,422.16759887687118,4.8566531059758331,0.20305542694419584,0,-8.0407444946985898,0,3.4479615071595555,0,1.1011804942961969,0,58.167311733705233,2.5983807334528914,6.8749050104411857,1.0615381254645171,0.76497124200886202,0.53375110718508745,0.40876972061307748,710.37681534494357,2.6746368391505026E-002,101.15022268972557,184.93486728572736,221.31980311685206,277.06613073906618,94.419986379680125,93.586666666666673,-2.9619999999999891,0.31433108462223458,-2.5704704129917673,6.8586772446481648E-002
20221116043000,421.93922692074693,4.7186479014817060,0.17377083726288406,0,-7.3111533558750050,0,-0.94597216399828110,2,0.75475088326480200,0,57.685378439220742,3.1006788503557958,7.1135000750100037,0.94423001387762240,0.82441050683737249,0.53153430607370877,0.37798761056822339,617.69602799703307,3.0759466046123354E-002,95.326118996191994,174.28654823134576,208.57648482739154,261.11300841782025,94.416938827256956,92.436666666666667,-3.1833333333333371,0.36463044893733126,-2.7792251671684767,5.8172718578535440E-002
20221116050000,421.52985185442168,4.5536310606214530,0.27143007744098963,0,-12.216925891068884,0,4.9019118575669438,0,0.99672666970674029,0,57.988692878850415,3.3095431356143354,7.6921362439912793,1.1257619261335448,0.83601510931965062,0.57775739460802489,0.47229515011850048,721.01531577377546,2.6351728714125413E-002,106.56860441519201,194.84139718409736,233.17538924216063,291.90791773292460,94.401835488715278,90.236666666666665,-3.3396666666666874,0.46523227024496405,-2.9430315441554740,7.0943024492233081E-002
20221116053000,422.29525370339599,4.6108386141560995,0.14301542278271454,1,-16.481397476499108,1,12.865354548199695,1,2.5645491144370727,1,52.002930307938314,1.4903414415952194,4.1679434351943963,0.83163955171279835,0.43601262849060657,0.32777922371004936,0.34270715344141273,204.18672245991095,9.3052083755006981E-002,129.75625355616964,237.23581513519380,283.91067984419590,355.42248109807548,94.396674539496530,92.813333333333333,-3.5500000000000114,0.33710890682651096,-3.1306922395493757,7.5263042689541065E-002
20221116060000,422.77559329215825,4.5964683386167016,0.18164870086995896,0,-5.8516368268037962,1,8.3190499035925161,1,2.2531726896730224,0,40.163574593884931,1.7112553027969684,4.1430340239227545,0.79773726800852673,0.45017059887667493,0.37448737811855404,0.38608889541043084,822.26620117432662,2.3106872169700012E-002,128.30837379811820,234.58862915991142,280.74267433251481,351.45651412666047,94.389952619707444,94.033333333333331,-3.7669999999999959,0.27536989891149632,-3.3440438160930626,7.4098484262967362E-002
20221116063000,422.40783392996946,4.4803342335347143,8.8958814255789609E-002,0,-6.2797958515873189,0,1.4067668959412145,1,0.74738989347127904,0,42.694000071779641,1.8812487312082375,3.8079630042910395,0.59389975395006633,0.41179238939859453,0.30475376613482968,0.27008855751266264,262.26785215717030,7.2445020782088823E-002,113.68432383821920,207.85120173170191,248.74480253519832,311.39897564201630,94.375781270184532,93.213333333333338,-3.9933333333333394,0.30793987772118103,-3.5660730154438056,6.0494792254743260E-002
20221116070000,422.69753757877407,4.4747963070840919,5.1200756862420947E-002,0,-9.3991831054808390,0,9.1696270498460478E-002,1,0.59268254775630347,0,42.890896674281549,1.2248582579131662,2.7876078776014217,0.48757367823274961,0.38512229239418672,0.26337803849408853,0.20486906918794934,76.459218121698555,0.24849848673260161,102.41707492876533,187.25107722049049,224.09171484049179,280.53623529005216,94.351407613715281,94.200000000000003,-4.1533333333333076,0.26002507167788735,-3.7324097340901972,7.9496927520883179E-002
20221116073000,423.40821751240685,4.4926642714403036,3.9184732684067657E-002,0,-9.1262986079334354,1,-0.85091811601375889,2,0.85908280573105644,1,28.639162243860369,1.0898291164381440,2.5022731091556278,0.39472439937148213,0.30248300448167953,0.23290374983454926,0.17918147193000411,52.673895154439165,0.36070998630901041,58.368715442838258,489.00000000000000,872.00000000000000,2241.0000000000000,94.326981733506940,95.983333333333334,-4.3530000000000086,0.17738886185119668,-3.9403809009127713,8.8149894595963077E-002
20221116080000,423.92476275496858,4.4909863631776998,7.0553587536994297E-002,1,-6.2226946053647243,0,-0.15955943513965951,2,2.2664986348186442,0,36.527709916507405,1.0725859027528801,2.7368141757653595,0.45125320562967564,0.31754347133125088,0.26187232428958113,0.24041242547739722,186.57243647304074,0.10183712213430549,116.93613773569223,213.79655464913193,255.85987151303928,320.30619769747392,94.310249123263901,96.609999999999999,-4.4466666666666583,0.14866020377072517,-4.0639125408596328,5.3515170390924925E-002
20221116083000,423.66241315317927,4.4659996507552773,4.7881669796432019E-002,0,-5.1691741150135773,0,0.46466203075890267,1,0.73520798863395831,0,21.218688879794172,1.3652821234683354,3.0664358720536216,0.50970242325090676,0.30853161870076024,0.23393538535256084,0.19806648269472094,125.56081596918609,0.15132109371336672,74.421959096142842,594.00000000000000,1045.0000000000000,2621.0000000000000,94.276531078699904,96.456666666666663,-4.5043333333333067,0.15471004715198036,-4.1040730201174824,6.9794056299286936E-002
20221116090000,423.38827256306467,4.4383630256572504,1.0735540905513598E-002,0,-0.11621324658044065,2,0.96040598245450526,2,5.8122791026240184E-002,1,354.67657747325040,1.0562030545688212,2.4015290986640574,0.31825429828672303,0.42185839922783663,0.11155504768174632,9.3807584993932575E-002,592.96337753140062,3.2042451051698971E-002,164.98957186275078,1073.0000000000000,1785.0000000000000,4054.0000000000000,94.194410135416661,96.560000000000002,-4.6123333333333107,0.14897919286825925,-4.2422757602267325,9.4419376000819580E-002
20221116093000,423.58249469862545,4.4047235793154789,1.1388880965021332E-002,0,-3.9073680474741228,0,1.8700336430954045,2,0.14178458633919058,0,328.02594732867266,1.4145449464631568,2.5375027827214618,0.31586229845391051,0.22929864412533391,0.12919614998897089,9.6649326393233412E-002,19.271609913445559,0.98590621568901415,296.69191556056887,2885.0000000000000,5369.0000000000000,-9999.,94.084886004123291,96.773333333333326,-4.7576666666666370,0.13821443528818123,-4.4263679436577377,0.11496315988320044
20221116100000,424.22410433607871,4.4350156052557370,4.9588045114660750E-002,0,-6.4577780373436431,0,-0.27179428328074851,1,0.27519899223158073,1,334.82486095025001,1.7152817899871555,3.1107166320611048,0.45888006757223015,0.32304128517988256,0.22937013893495506,0.20176489845627835,106.02398787123529,0.17920472886829389,113.00610030378211,206.61119280244898,247.26082854958216,309.54121630678401,94.006750011510064,97.213333333333338,-4.7379999999999995,0.11954457105082497,-4.5137750623171087,6.8399740788838786E-002
20221116103000,425.20208682609069,4.3704708820263836,0.10246607174085286,0,-3.2401395819024423,0,-1.3347405465770688,1,1.1611079129053237,0,343.75808230503333,1.6541991734147092,4.1249294949370086,0.60575286692715269,0.43125817682560946,0.30646580295434261,0.28998744896602791,627.26498615677804,3.0290228881436652E-002,119.79884870743190,219.03050332030818,262.12357130329423,328.14760655721682,93.986115148531695,96.769999999999996,-4.8743333333333112,0.13714190896428363,-4.7214066798946988,0.14613331322350959
20221116110000,426.32847494393371,4.2520727284654427,7.2209814121977578E-002,0,-1.6351563218295022,1,-0.93488140842266776,1,0.20670568930152414,2,337.18393061260474,1.6181861010001664,3.5271784712131344,0.57276412191304327,0.38746252639893880,0.28391458943992720,0.24330599819138465,734.14070763220013,2.5880597278524542E-002,110.66925446582817,202.33869331191536,242.14773787100935,303.14023351862301,93.989909399739588,96.073333333333338,-5.1410000000000196,0.16338777967077703,-5.0327227511935462,8.6829801550549576E-002
20221116113000,426.81603864204345,4.3658856550922227,6.0376586245306271E-002,0,-3.9345027487123603,0,0.61700515985061621,1,0.61938576765632380,0,342.11575198093374,1.3702521568869461,3.4252709716736729,0.54785343794647257,0.39336212301471024,0.25408849186150734,0.22260374408967001,233.69939177567551,8.1301024601030239E-002,112.64006052668805,205.94195534752183,246.45992224166534,308.53857664827200,94.008200904730899,96.146666666666661,-4.7996666666666670,0.16453448075536414,-4.6586016235351053,0.11638820367634531
20221116120000,427.28290509786893,4.4297981240073421,9.9962418188444396E-002,0,-7.6678705035846315,0,-0.92513179824695846,1,1.8492761726494471,0,346.54668524482668,1.7182468170225111,4.2714803654556484,0.65153493117424022,0.56993721185213519,0.31868771791696321,0.28651676020288580,255.72325611793852,7.4299069581834506E-002,114.99598145494603,210.24933018681929,251.61474980542010,314.99180906400187,94.020166806857645,96.156666666666666,-4.6069999999999709,0.16651374338860023,-4.4482279777526514,8.7650737103725576E-002
20221116123000,426.24021829768731,4.4603480514860756,0.11318795452750804,0,-0.75769223769832295,0,-3.1193748564998281E-002,2,0.72067919513285816,0,6.3281437599086701,1.8245735541763455,5.2550307113466550,0.81005458687395870,0.51710498544077022,0.35115786662253545,0.30491934155242462,3119.5769061175706,6.0905695136864585E-003,111.84097819931425,204.48097799884562,244.71150549412130,306.34976635502574,94.031120261441316,96.146666666666661,-4.5129999999999768,0.16813540941266525,-4.2951246552669886,5.1980538012864376E-002
20221116130000,424.10963303215431,4.4664518140991492,0.25396523128429205,0,5.7413064382385599,0,0.49410693542703993,1,1.5550000997854119,1,5.3203438563487850,2.1815133348133866,6.3822380440049109,1.0565375977218399,0.71946744324102108,0.47529074924455184,0.45673497693333714,-1383.7204511291445,-1.3731097191268372E-002,121.28827728941205,221.75365379705002,265.38248692161790,332.22738219436263,94.040868396318970,96.159999999999997,-4.4953333333333489,0.16777704183015771,-4.3429081164086369,6.7293331214155136E-002
20221116133000,423.29304823975463,4.4101987882399838,0.14561618907434948,0,6.3317179440370630,1,3.0732774051665634,1,1.8476279784865661,1,359.31848275207591,1.8995297365238377,5.3635631737627465,0.84728206338274892,0.71074680385568290,0.39048182310250262,0.34572424758495179,-544.22710505408941,-3.4911895830898820E-002,113.59471180595145,207.68736235642464,248.54872864815175,311.15351440240784,94.056197392707816,95.963333333333338,-4.6340000000000146,0.17453383237376216,-4.4472899853086574,6.9626478035940173E-002
20221116140000,422.49621825638678,4.3617879466821758,0.11595601287899868,0,0.53048025263171694,1,0.24979234170487050,1,0.37117958808217616,0,6.6026412483792853,1.6221951265437384,4.5051671476981276,0.75919094621278871,0.57002921921000260,0.36781333811410954,0.30840350150558410,-4611.8093145550156,-4.1198581086246133E-003,108.75478162777284,198.83842637415552,237.95881232716076,297.89619581371238,94.078770768663190,95.790000000000006,-4.7529999999999859,0.18039919039920449,-4.4864090491400930,5.5879128901944894E-002
20221116143000,422.73500485375325,4.3315164804845425,0.10496730576476375,0,5.6900517255522569,1,2.9972682737331184,1,1.0662228054703941E-004,2,3.8291326674241475,1.7661165548205067,5.1912612514614578,0.80744797256824885,0.55498615506782933,0.33109038805865482,0.29335545391921303,-370.09130148552106,-5.1338682978322663E-002,113.66139317031046,207.80927715740330,248.69462952744857,311.33616499005927,94.097702735677089,95.673333333333332,-4.8263333333333094,0.18437328924748328,-4.5590876125759223,8.4300743032314676E-002
20221116150000,422.75552578505949,4.3081016517701576,0.10719461951786408,0,10.661631924098154,0,0.45753724853879629,0,0.29676609177811725,0,358.25297353461917,1.6515650934271728,4.9897886959982891,0.74349815101413430,0.69372416965477546,0.37719786369662278,0.29639809482874480,-203.74342153745681,-9.3254544645540768E-002,103.25232661382663,188.77818369064443,225.91927125683137,282.82411905757579,94.109958089920809,95.596666666666664,-4.8856666666666797,0.18679997556027103,-4.5958128805920637,8.5994612670039286E-002
20221116153000,422.47824949096264,4.3368902272530390,6.4804708759226656E-002,0,6.4407298072984061,1,2.1240401987931610,0,0.18127264377608260,0,2.7497669077095566,1.1296725852792344,3.5496226031068323,0.54201440491555486,0.47335751803123494,0.30011156890118046,0.23049858341493329,-158.62247861157837,-0.11978125777825999,101.38257522537624,185.35968182593723,221.82819762233575,277.70258033164509,94.113443565658159,95.506666666666661,-4.7846666666666806,0.19207972400045548,-4.3567108069521510,0.15932231077291067
20221116160000,422.37677092757053,4.3509059489304063,3.8309367392420725E-002,1,13.360268309605143,0,1.4551890213987160,0,-0.14823171892902243,1,357.96610071545729,1.2311236217115640,3.1726098395594469,0.46564438296612592,0.51762970044564915,0.26033843099772863,0.17725393326476510,-34.776860635840144,-0.54634028640351406,70.544379327393997,233.00000000000000,325.00000000000000,546.00000000000000,94.119929467640503,95.000000000000000,-4.6706666666666479,0.21558779312682988,-4.1250598653552970,0.10456395738026661
20221116163000,421.95196926507003,4.3859875579560486,9.9384409606927140E-002,1,52.556010125572172,1,13.299534267622104,1,0.13742384724135012,2,344.13455625221263,1.1836693296530463,3.3867285134275305,0.50930215940944090,0.48043924176746028,0.32063948602245929,0.28564636460316739,-37.006580238036847,-0.51342220431573515,114.15744965567022,208.71622662174244,249.78001639813721,312.69494055547000,94.148218698784731,93.250000000000000,-4.3136666666666770,0.29898604232976483,-3.8393995768229274,0.24683085461390691
20221116170000,421.57966976288020,4.4107720679149889,8.6207076670845956E-002,1,42.799931933064912,0,18.454374441223688,1,0.62452972443727439,1,341.82478163301482,1.3574226216676695,3.4741582530132931,0.58765356128803115,0.65509677783522580,0.36039886599278226,0.26625295359393969,-36.805639871939434,-0.51622523249447894,98.279675651803558,179.68659178638467,215.03895777240481,269.20325768004000,94.164876642144094,90.450000000000003,-3.8306666666666729,0.43864667038194738,-3.5138567962646334,0.19684400043430422
20221116173000,421.35142475732454,4.4533175835611800,0.17413200791909095,1,113.48337265354419,0,39.661643668697224,0,1.0394736622079812,0,324.26177057178671,1.0019686446429903,3.6367570351427854,0.61434755564280341,0.47878053631527745,0.45715725965989462,0.37870569048572578,-39.934900974085252,-0.47577431110520524,107.70698473539670,196.92271947721298,235.66620044988909,295.02611779459039,94.134697299810384,89.060000000000002,-3.5000000000000000,0.51509164841693689,-3.2400750354958063,0.27736222299894120
20221116180000,421.38404515963884,4.3757822905417312,7.9215355021526435E-002,1,71.667215514677594,0,32.951780233609270,0,1.0249419688289871,1,335.44847212110989,0.84613819214978103,4.0505703460108711,0.57721659165009020,0.63308341390438039,0.39299828876737908,0.25562879158700275,-19.441919153020528,-0.97726977725077768,88.762634956169748,162.28640609031618,194.21537956364728,243.13460877835715,94.090672811414933,85.483333333333334,-3.1926666666666392,0.69936551768777122,-2.9129372287326305,0.24868354273312165
20221116183000,421.39545449250716,4.2635592936625670,0.20227653190835077,1,75.254639159249336,1,50.116267381887937,1,0.88904105674155165,1,321.85927192711506,1.1454114608814965,3.7784150647488706,0.74694250790229855,0.51804784145658123,0.37740950963685521,0.40852823343141326,-75.555283276130083,-0.25147149446268574,133.40812780250675,243.91260596305145,291.90109318896975,365.42553042879183,94.063206857638889,83.343333333333334,-3.2049999999999841,0.80172568218186036,-2.9229428304035991,0.23120355778874810
20221116190000,421.16683778964756,4.2531302676907892,4.5465065054265813E-002,1,55.814814726333978,0,27.918424952372256,0,0.23623068890024129,0,304.21387347876777,1.1348486190935747,3.3660416935413684,0.49634756561112514,0.51100663118983092,0.36159505390650681,0.19370969524548143,-10.857594211726768,-1.7499272517920230,38.575217633502461,121.00000000000000,167.00000000000000,274.00000000000000,94.032244752170143,83.170000000000002,-3.2143333333333430,0.80950471435801208,-2.9444767184787111,0.19885579884474755
20221116193000,421.44005445746637,4.4683013425850318,6.3675869995707540E-002,1,53.661076464245248,0,25.415214110971842,1,0.56043790195428989,1,293.86086315345511,1.4748038133815575,2.9766746397228210,0.50366215068632225,0.55078698996179987,0.37140150228279367,0.22933696265081185,-18.738175002633596,-1.0139728120443749,85.145013770282688,155.67224078141453,186.29991297028300,233.22538388690060,94.007910226779515,86.546666666666667,-3.0896666666666874,0.65313489768888644,-2.7940035900539897,0.19411568689958242
20221116200000,421.48046273188749,4.5866191509017078,0.10382373110868806,1,38.607600675695039,0,30.123114303282790,1,0.56149672000108020,0,306.50852798936569,1.3862916395233649,3.0574447556263640,0.60837146247776264,0.52114652337437128,0.37677344759338688,0.29291515979326738,-54.257456166074846,-0.35018228539582708,102.37269769295354,187.16994148003309,223.99461608152154,280.41467916597935,93.987764940755213,88.403333333333336,-3.0266666666666424,0.56564638328714356,-2.6828262286715585,0.14296003636298737
20221116203000,421.10251196201904,4.4381177779987961,0.30457378144029840,1,49.723813598981060,0,57.205762937834713,1,1.0219304445696809,0,260.17109721621330,1.5215213426071332,3.9154864937521503,0.88882397229629229,0.48943042719204882,0.47811247902729254,0.50201803895021613,-212.04464997507907,-8.9603769782604786E-002,130.19859411773484,238.04455475902131,284.87853461893536,356.63412042622372,93.968364438343883,83.590000000000003,-2.7193333333333385,0.81893838220088755,-2.3882181342153785,0.17456048367050483
20221116210000,421.15199960219923,4.3875477813862682,4.4217869132598418E-002,1,9.6643313474816690,0,5.9762069515757714,0,-0.12645031495910863,1,303.97123688339332,1.0907573914327200,2.5950668319817956,0.45819089259193047,0.44285859848749592,0.26415784436072104,0.19134283530176918,-60.402676247024935,-0.31455559886613177,59.027730604772579,209.00000000000000,297.00000000000000,512.00000000000000,93.956366474392354,81.739999999999995,-2.5740000000000123,0.92115071035634799,-2.2032358949448962,7.4621512773249882E-002
20221116213000,421.38273998294670,4.5229270378297910,1.3754777915208655E-002,0,13.808905757783499,1,2.3508472498977042,2,0.19768398657867364,1,296.60454670414941,1.1178341239591811,2.2936222843797780,0.34465064523177841,0.31973640847333790,0.25038826537982700,0.10669868326700774,-7.3301332623593218,-2.5920401880776369,72.926400496380992,216.00000000000000,293.00000000000000,470.00000000000000,93.954450847439233,85.016666666666666,-2.6943333333333044,0.74913103241733381,-2.3094071367052038,0.13254487960132558
20221116220000,421.74931494013271,4.7341811393312456,2.1707206653929629E-002,0,2.3860178124399392,0,6.4275570616413154,1,0.20107648482795115,1,291.21043533342936,0.70472564139192750,1.7419088074693481,0.33223237897286867,0.25310226977080419,0.18570420915169145,0.13400314691467574,-84.034035650760927,-0.22609886402412657,54.731286845568953,202.00000000000000,291.00000000000000,511.00000000000000,93.947186985243050,90.253333333333330,-2.8853333333333353,0.48043871176555286,-2.4593792885673906,3.2327761317869193E-002
20221116223000,422.28845453597393,4.7916247543873371,4.1565684822136278E-003,0,0.33414190940874222,2,0.37195969389641742,1,-0.23501767935897783,1,333.77005903528561,0.25249605750292126,1.1081930751326294,0.17997254779270747,0.22820063313033551,9.9046047469563692E-002,5.8633503027032255E-002,-50.264043664467778,-0.37800380977767045,36.111945133363264,130.00000000000000,185.00000000000000,320.00000000000000,93.936064623046875,91.890000000000001,-2.9663333333333526,0.39736008844822723,-2.5174610375298130,5.6314935197168417E-002